User: anonymous   Login
Location: Unspecified
(0.0000°N, 0.0000°E)
Time: 19:54:47
(UTC+00:00)
Language:

Gonets-D1 - Orbit

View from above orbital plane
View from above orbital plane
View from above satellite
View from above satellite

Ground track
Ground track

The orbit data is extracted from the following two-line orbital elements,

1 24727U 97006C   21025.83485536  .00000014  00000-0  20205-4 0  9994
2 24727  82.6018  67.0001 0001136 123.3758  54.0272 12.62327593103221
Epoch (UTC): 25 January 2021 20:02:11
Eccentricity: 0.0001136
inclination: 82.6018°
perigee height: 1412 km
apogee height: 1414 km
right ascension of ascending node: 67.0001°
argument of perigee: 123.3758°
revolutions per day: 12.62327593
mean anomaly at epoch: 54.0272°
orbit number at epoch: 10322

The dashed part of the orbit path shows where the satellite is in the earth's shadow,  

DLR